• In Germany
  • List of Countries
  • For 7 days
  • Water Temperature
  • Satellite Maps
  • Weather Map
  • Weather Widgets
  • user-avatar
    Login

    Hourly Weather Santa Cruz

    Today, 26 September, Tuesday

    Time Temperature Precipitation Wind Pressure Humidity
    00:00 +26°C° 0.2 mm 1 mps 723 mmHg 61%
    01:00 +25°C° 0.2 mm 1 mps 723 mmHg 66%
    02:00 +24°C° 0.2 mm 1 mps 723 mmHg 71%
    03:00 +24°C° 0.2 mm 1 mps 722 mmHg 72%
    04:00 +24°C° 0.2 mm 1 mps 722 mmHg 74%
    05:00 +24°C° 0.2 mm 1 mps 722 mmHg 76%
    06:00 +26°C° 0 mm 1 mps 723 mmHg 68%
    07:00 +28°C° 0 mm 1 mps 723 mmHg 60%
    08:00 +30°C° 0 mm 1 mps 724 mmHg 52%
    09:00 +33°C° 0 mm 1 mps 724 mmHg 43%
    10:00 +35°C° 0 mm 1 mps 724 mmHg 34%
    11:00 +39°C° 0 mm 2 mps 724 mmHg 26%
    12:00 +38°C° 0 mm 2 mps 723 mmHg 28%
    13:00 +36°C° 0 mm 1 mps 722 mmHg 30%
    14:00 +36°C° 0 mm 1 mps 721 mmHg 32%
    15:00 +37°C° 0 mm 2 mps 721 mmHg 30%
    16:00 +37°C° 0 mm 2 mps 720 mmHg 29%
    17:00 +38°C° 0 mm 2 mps 720 mmHg 27%
    18:00 +36°C° 0 mm 2 mps 720 mmHg 32%
    19:00 +32°C° 0 mm 1 mps 720 mmHg 36%
    20:00 +30°C° 0 mm 1 mps 721 mmHg 41%
    21:00 +29°C° 0 mm 1 mps 721 mmHg 44%
    22:00 +28°C° 0 mm 1 mps 721 mmHg 48%
    23:00 +28°C° 0 mm 1 mps 721 mmHg 51%

    Tomorrow, 27 September, Wednesday

    Time Temperature Precipitation Wind Pressure Humidity
    00:00 +27°C° 0 mm 1 mps 721 mmHg 53%
    01:00 +27°C° 0 mm 1 mps 721 mmHg 55%
    02:00 +26°C° 0 mm 1 mps 720 mmHg 57%
    03:00 +26°C° 0 mm 1 mps 720 mmHg 58%
    04:00 +26°C° 0 mm 1 mps 720 mmHg 58%
    05:00 +25°C° 0 mm 1 mps 720 mmHg 59%
    06:00 +27°C° 0 mm 1 mps 721 mmHg 53%
    07:00 +30°C° 0 mm 2 mps 721 mmHg 47%
    08:00 +32°C° 0 mm 2 mps 722 mmHg 40%
    09:00 +35°C° 0 mm 3 mps 722 mmHg 36%
    10:00 +37°C° 0 mm 3 mps 722 mmHg 31%
    11:00 +40°C° 0 mm 4 mps 722 mmHg 27%
    12:00 +40°C° 0 mm 4 mps 721 mmHg 26%
    13:00 +40°C° 0 mm 4 mps 720 mmHg 26%
    14:00 +40°C° 0 mm 4 mps 719 mmHg 26%
    15:00 +38°C° 0 mm 4 mps 719 mmHg 27%
    16:00 +38°C° 0 mm 4 mps 719 mmHg 28%
    17:00 +38°C° 0 mm 3 mps 718 mmHg 29%
    18:00 +35°C° 0.2 mm 3 mps 719 mmHg 35%
    19:00 +32°C° 0.2 mm 2 mps 720 mmHg 42%
    20:00 +30°C° 0.2 mm 1 mps 720 mmHg 49%
    21:00 +28°C° 1.3 mm 1 mps 720 mmHg 58%
    22:00 +26°C° 1.3 mm 1 mps 721 mmHg 68%
    23:00 +25°C° 1.3 mm 1 mps 721 mmHg 77%

    Day after tomorrow, 28 September, Thursday

    Time Temperature Precipitation Wind Pressure Humidity
    00:00 +24°C° 0.1 mm 1 mps 721 mmHg 78%
    01:00 +24°C° 0.1 mm 1 mps 721 mmHg 79%
    02:00 +24°C° 0.1 mm 1 mps 721 mmHg 80%
    03:00 +24°C° 0.9 mm 2 mps 721 mmHg 84%
    04:00 +23°C° 0.9 mm 2 mps 721 mmHg 88%
    05:00 +22°C° 0.9 mm 3 mps 721 mmHg 92%
    06:00 +24°C° 0 mm 3 mps 722 mmHg 87%
    07:00 +25°C° 0 mm 3 mps 723 mmHg 82%
    08:00 +26°C° 0 mm 3 mps 724 mmHg 77%
    09:00 +28°C° 0 mm 2 mps 724 mmHg 68%
    10:00 +30°C° 0 mm 2 mps 724 mmHg 58%
    11:00 +32°C° 0 mm 1 mps 724 mmHg 48%
    12:00 +32°C° 0.6 mm 2 mps 723 mmHg 48%
    13:00 +34°C° 0.6 mm 2 mps 722 mmHg 48%
    14:00 +34°C° 0.6 mm 3 mps 721 mmHg 49%
    15:00 +33°C° 0.4 mm 3 mps 721 mmHg 49%
    16:00 +33°C° 0.4 mm 3 mps 720 mmHg 49%
    17:00 +33°C° 0.4 mm 3 mps 720 mmHg 50%
    18:00 +30°C° 0 mm 2 mps 720 mmHg 55%
    19:00 +28°C° 0 mm 2 mps 720 mmHg 61%
    20:00 +26°C° 0 mm 1 mps 720 mmHg 67%
    21:00 +26°C° 0 mm 1 mps 721 mmHg 69%
    22:00 +25°C° 0 mm 1 mps 721 mmHg 71%
    23:00 +24°C° 0 mm 1 mps 721 mmHg 73%

    29 September, Friday

    Time Temperature Precipitation Wind Pressure Humidity
    00:00 +24°C° 0 mm 1 mps 721 mmHg 74%
    01:00 +24°C° 0 mm 1 mps 721 mmHg 75%
    02:00 +23°C° 0 mm 1 mps 721 mmHg 76%
    03:00 +23°C° 0.2 mm 1 mps 721 mmHg 77%
    04:00 +23°C° 0.2 mm 1 mps 721 mmHg 78%
    05:00 +23°C° 0.2 mm 1 mps 721 mmHg 79%
    06:00 +24°C° 0.6 mm 1 mps 722 mmHg 77%
    07:00 +25°C° 0.6 mm 1 mps 722 mmHg 76%
    08:00 +25°C° 0.6 mm 1 mps 723 mmHg 74%
    09:00 +28°C° 0 mm 2 mps 723 mmHg 66%
    10:00 +30°C° 0 mm 2 mps 723 mmHg 58%
    11:00 +33°C° 0 mm 3 mps 722 mmHg 49%
    12:00 +34°C° 0 mm 3 mps 721 mmHg 46%
    13:00 +35°C° 0 mm 3 mps 720 mmHg 44%
    14:00 +36°C° 0 mm 4 mps 719 mmHg 41%
    15:00 +35°C° 0 mm 3 mps 719 mmHg 42%
    16:00 +35°C° 0 mm 3 mps 719 mmHg 43%
    17:00 +35°C° 0 mm 2 mps 719 mmHg 45%
    18:00 +32°C° 0.7 mm 2 mps 719 mmHg 53%
    19:00 +29°C° 0.7 mm 2 mps 720 mmHg 61%
    20:00 +27°C° 0.7 mm 1 mps 720 mmHg 70%
    21:00 +26°C° 3.2 mm 2 mps 720 mmHg 76%
    22:00 +25°C° 3.2 mm 2 mps 720 mmHg 83%
    23:00 +24°C° 3.2 mm 2 mps 720 mmHg 89%

    30 September, Saturday

    Time Temperature Precipitation Wind Pressure Humidity
    00:00 +24°C° 0.8 mm 2 mps 720 mmHg 89%
    01:00 +23°C° 0.8 mm 2 mps 720 mmHg 88%
    02:00 +22°C° 0.8 mm 3 mps 720 mmHg 88%
    03:00 +23°C° 0.4 mm 2 mps 720 mmHg 89%
    04:00 +23°C° 0.4 mm 2 mps 720 mmHg 89%
    05:00 +21°C° 0.4 mm 2 mps 721 mmHg 90%
    06:00 +23°C° 0 mm 2 mps 721 mmHg 87%
    07:00 +24°C° 0 mm 2 mps 722 mmHg 84%
    08:00 +24°C° 0 mm 2 mps 722 mmHg 81%
    09:00 +27°C° 0 mm 2 mps 722 mmHg 71%
    10:00 +30°C° 0 mm 1 mps 722 mmHg 60%
    11:00 +33°C° 0 mm 1 mps 722 mmHg 49%
    12:00 +34°C° 0 mm 1 mps 720 mmHg 47%
    13:00 +35°C° 0 mm 2 mps 719 mmHg 44%
    14:00 +36°C° 0 mm 3 mps 718 mmHg 41%
    15:00 +36°C° 0 mm 3 mps 718 mmHg 42%
    16:00 +36°C° 0 mm 3 mps 717 mmHg 42%
    17:00 +35°C° 0 mm 3 mps 717 mmHg 43%
    18:00 +34°C° 0 mm 3 mps 717 mmHg 48%
    19:00 +31°C° 0 mm 3 mps 717 mmHg 52%
    20:00 +29°C° 0 mm 3 mps 717 mmHg 57%
    21:00 +29°C° 0 mm 3 mps 717 mmHg 59%
    22:00 +29°C° 0 mm 3 mps 716 mmHg 60%
    23:00 +29°C° 0 mm 4 mps 716 mmHg 61%

    1 October, Sunday

    Time Temperature Precipitation Wind Pressure Humidity
    00:00 +28°C° 0 mm 4 mps 715 mmHg 63%
    01:00 +28°C° 0 mm 4 mps 714 mmHg 65%
    02:00 +28°C° 0 mm 5 mps 714 mmHg 67%
    03:00 +28°C° 0 mm 5 mps 714 mmHg 67%
    04:00 +28°C° 0 mm 5 mps 714 mmHg 68%
    05:00 +28°C° 0 mm 6 mps 714 mmHg 69%
    06:00 +29°C° 0 mm 6 mps 714 mmHg 65%
    07:00 +30°C° 0 mm 7 mps 715 mmHg 62%
    08:00 +32°C° 0 mm 8 mps 715 mmHg 58%
    09:00 +33°C° 0 mm 8 mps 715 mmHg 55%
    10:00 +34°C° 0 mm 8 mps 714 mmHg 51%
    11:00 +35°C° 0 mm 8 mps 714 mmHg 47%
    12:00 +37°C° 0 mm 8 mps 713 mmHg 44%
    13:00 +38°C° 0 mm 8 mps 712 mmHg 42%
    14:00 +39°C° 0 mm 8 mps 712 mmHg 39%
    15:00 +38°C° 0 mm 8 mps 711 mmHg 41%
    16:00 +36°C° 0 mm 7 mps 711 mmHg 42%
    17:00 +36°C° 0 mm 7 mps 710 mmHg 44%
    18:00 +35°C° 0 mm 7 mps 711 mmHg 47%
    19:00 +34°C° 0 mm 7 mps 711 mmHg 49%
    20:00 +33°C° 0 mm 6 mps 712 mmHg 52%
    21:00 +32°C° 0.8 mm 6 mps 713 mmHg 57%
    22:00 +30°C° 0.8 mm 5 mps 713 mmHg 62%
    23:00 +29°C° 0.8 mm 5 mps 714 mmHg 68%
    Show more